Flag for U.S.A. Weather past 2 weeks in Chicago, Illinois, U.S.A.

Now
21 °F

Overcast.


Feels Like: 21 °F
Forecast: 16 / 29 °F
Wind: No wind

Location: Chicago Midway Airport

Current Time: Mar 1, 2015 at 9:08:39 AM

Latest Report: Mar 1, 2015 at 8:04 AM


Visibility: 7 mi

Pressure: 30.38 "Hg

Humidity: 88%

Dew point: 18 °F

Location of ChicagoLocation

Historic Weather in Chicago — Graph

°F

Chicago temperature yesterday

Maximum temperature yesterday: 23 °F (at 2:53 PM)
Minimum temperature yesterday: 2 °F (at 4:53 AM)
Average temperature yesterday: 14 °F

Past Weeks' High & Low Weather Summary

 TemperatureHumidityPressure
High32 °F (Feb 21, 2:53 PM)88% (Feb 25, 8:53 PM)30.81 "Hg (Feb 25, 8:53 PM)
Low-4 °F (Feb 19, 4:53 AM)29% (Feb 16, 12:53 PM)29.75 "Hg (Feb 24, 4:53 PM)
Average14 °F58%30.30 "Hg
* Reported Feb 14 8:53 AM — Mar 1 8:04 AM, Chicago, Weather by CustomWeather, © 2015

Note: Actual official high and low records may vary slightly from our data, if they occured in-between our weather recording intervals... More about our weather records

Advertising

Chicago weather history for previous 24 hours

 ConditionsComfort  
Time TempWeatherWind HumidityBarometerVisibility
8:04 AM
Sun, Mar 1
21 °FOvercast.No wind88%30.38 "Hg7 mi
6:53 AM20 °FLow clouds.No wind85%30.42 "Hg7 mi
5:53 AM19 °FMostly cloudy.No wind81%30.44 "Hg6 mi
4:53 AM19 °FHigh level clouds.No wind81%30.44 "Hg10 mi
3:53 AM20 °FMostly cloudy.No wind82%30.44 "Hg10 mi
2:53 AM20 °FMostly cloudy.No wind82%30.45 "Hg10 mi
1:53 AM21 °FOvercast.6 mph78%30.47 "Hg10 mi
12:53 AM20 °FLight snow. Overcast.7 mph82%30.49 "Hg10 mi
11:53 PM
Sat, Feb 28
20 °FLight snow. Overcast.5 mph82%30.51 "Hg7 mi
10:53 PM20 °FOvercast.7 mph78%30.53 "Hg7 mi
9:53 PM20 °FLight snow. Overcast.7 mph82%30.56 "Hg3 mi
8:53 PM20 °FLight snow. Overcast.6 mph82%30.58 "Hg2 mi
7:53 PM20 °FLight snow. Overcast.7 mph74%30.60 "Hg2 mi
6:53 PM21 °FLight snow. Overcast.10 mph60%30.62 "Hg6 mi
5:53 PM23 °FMostly cloudy.7 mph46%30.60 "Hg10 mi
4:53 PM23 °FPartly sunny.9 mph42%30.62 "Hg10 mi
3:53 PM23 °FPartly sunny.5 mph40%30.63 "Hg10 mi
2:53 PM23 °FScattered clouds.7 mph40%30.66 "Hg10 mi
1:53 PM22 °FPassing clouds.5 mph40%30.67 "Hg10 mi
12:53 PM20 °FPassing clouds.8 mph41%30.71 "Hg10 mi
11:53 AM19 °FPassing clouds.8 mph45%30.75 "Hg10 mi
10:53 AM17 °FPassing clouds.10 mph47%30.78 "Hg10 mi
9:53 AM14 °FScattered clouds.6 mph56%30.79 "Hg10 mi
Weather by CustomWeather, © 2015

See weather overviewHow to use our weather pages